EW7114 Weather Reports


time (UTC)temp
F
wind
direction
speed
knots
gust
knots
rain 1hr
in
rain 24hr
in
rain mn
in
humidity
%
barometer
mb
20260904100512 70 170 8.7 21.7 0.00 0.00 0.00 24 1001.1
20260904100012 70 174 11.3 18.2 0.00 0.00 0.00 24 1001.1
20260904095512 69 151 12.2 16.5 0.00 0.00 0.00 26 1001.1
20260904095013 69 147 11.3 16.5 0.00 0.00 0.00 25 1001.1
20260904094514 69 165 12.2 16.5 0.00 0.00 0.00 25 1001.1
20260904094010 69 156 10.4 17.4 0.00 0.00 0.00 25 1001.2
20260904093510 69 138 11.3 18.2 0.00 0.00 0.00 25 1001.2
20260904093009 69 142 10.4 17.4 0.00 0.00 0.00 26 1001.1
20260904092509 68 130 11.3 16.5 0.00 0.00 0.00 26 1001.2
20260904092008 68 168 10.4 14.8 0.00 0.00 0.00 26 1001.2
20260904091523 69 138 9.6 14.8 0.00 0.00 0.00 26 1001.1
20260904091007 69 158 11.3 17.4 0.00 0.00 0.00 24 1001.1
20260904090509 69 154 13.9 18.2 0.00 0.00 0.00 25 1001.1
20260904090013 69 135 13.0 17.4 0.00 0.00 0.00 25 1001.1
20260904085507 70 124 12.2 21.7 0.00 0.00 0.00 25 1001.2
20260904085011 70 132 15.6 21.7 0.00 0.00 0.00 24 1001.1
20260904084610 70 132 13.0 20.9 0.00 0.00 0.00 24 1001.1
20260904084008 71 130 14.8 20.9 0.00 0.00 0.00 23 1001.1
20260904083504 71 128 13.0 22.6 0.00 0.00 0.00 23 1001.0
20260904083009 72 138 13.9 23.5 0.00 0.00 0.00 23 1001.0
20260904082503 72 119 11.3 23.5 0.00 0.00 0.00 22 1000.8
20260904082005 72 122 15.6 25.2 0.00 0.00 0.00 22 1000.9
20260904081505 71 113 19.1 25.2 0.00 0.00 0.00 22 1000.8
20260904081002 70 116 12.2 19.1 0.00 0.00 0.00 24 1000.9
20260904080514 71 140 13.0 20.9 0.00 0.00 0.00 23 1001.0
20260904080003 71 143 12.2 21.7 0.00 0.00 0.00 23 1000.9
20260904075501 71 153 14.8 22.6 0.00 0.00 0.00 23 1000.9
20260904075102 71 146 13.9 22.6 0.00 0.00 0.00 23 1001.0
20260904074609 71 120 13.9 22.6 0.00 0.00 0.00 24 1000.8
20260904074059 70 160 16.5 20.9 0.00 0.00 0.00 23 1000.8
20260904073557 70 134 13.9 21.7 0.00 0.00 0.00 24 1000.8
20260904073057 69 146 12.2 19.1 0.00 0.00 0.00 25 1000.8
20260904072556 69 127 13.0 19.1 0.00 0.00 0.00 25 1000.9
20260904072055 69 143 13.0 18.2 0.00 0.00 0.00 25 1000.8
20260904071623 68 127 12.2 16.5 0.00 0.00 0.00 27 1000.7
20260904071054 69 153 9.6 21.7 0.00 0.00 0.00 26 1000.6
20260904070554 70 151 14.8 21.7 0.00 0.00 0.00 25 1000.5
20260904070106 70 143 13.9 19.1 0.00 0.00 0.00 25 1000.5
20260904065551 71 137 11.3 22.6 0.00 0.00 0.00 24 1000.5
20260904065051 71 138 14.8 22.6 0.00 0.00 0.00 24 1000.5
20260904064604 72 138 13.9 19.1 0.00 0.00 0.00 24 1000.5
20260904064052 71 136 13.0 17.4 0.00 0.00 0.00 23 1000.6
20260904063550 72 164 8.7 20.0 0.00 0.00 0.00 22 1000.6
20260904063054 72 138 13.0 20.0 0.00 0.00 0.00 22 1000.6
20260904062551 72 136 12.2 19.1 0.00 0.00 0.00 23 1000.6
20260904062047 72 153 12.2 19.1 0.00 0.00 0.00 23 1000.5
20260904061547 72 165 12.2 18.2 0.00 0.00 0.00 23 1000.5
20260904061047 72 134 13.0 18.2 0.00 0.00 0.00 23 1000.6
20260904060545 71 144 11.3 17.4 0.00 0.00 0.00 24 1000.5
20260904060044 70 153 12.2 16.5 0.00 0.00 0.00 27 1000.5
20260904055544 69 145 10.4 17.4 0.00 0.00 0.00 26 1000.6
20260904055040 71 143 10.4 24.3 0.00 0.00 0.00 26 1000.5
20260904054539 72 143 14.8 24.3 0.00 0.00 0.00 24 1000.6
20260904054038 72 126 12.2 22.6 0.00 0.00 0.00 26 1000.5
20260904053536 72 129 16.5 22.6 0.00 0.00 0.00 25 1000.6
20260904053042 72 128 13.0 19.1 0.00 0.00 0.00 26 1000.5
20260904052537 72 134 13.0 24.3 0.00 0.00 0.00 26 1000.5
20260904052036 73 150 15.6 24.3 0.00 0.00 0.00 26 1000.4
20260904051535 72 145 12.2 17.4 0.00 0.00 0.00 26 1000.4
20260904051034 73 170 10.4 22.6 0.00 0.00 0.00 24 1000.5
20260904050532 73 136 14.8 22.6 0.00 0.00 0.00 25 1000.5
20260904050033 74 160 14.8 28.7 0.00 0.00 0.00 24 1000.5
20260904045529 74 127 14.8 21.7 0.00 0.00 0.00 24 1000.5
20260904045028 74 136 13.9 24.3 0.00 0.00 0.00 25 1000.5
20260904044526 74 145 13.9 25.2 0.00 0.00 0.00 25 1000.5
20260904044024 74 124 16.5 25.2 0.00 0.00 0.00 26 1000.6
20260904043523 74 97 14.8 20.9 0.00 0.00 0.00 27 1000.5
20260904043021 74 144 13.0 25.2 0.00 0.00 0.00 25 1000.6
20260904042521 74 138 13.9 20.0 0.00 0.00 0.00 25 1000.6
20260904042020 74 134 12.2 20.0 0.00 0.00 0.00 26 1000.5
20260904041524 74 113 14.8 19.1 0.00 0.00 0.00 25 1000.5
20260904041015 74 149 13.0 21.7 0.00 0.00 0.00 25 1000.4
20260904040518 75 134 13.9 26.1 0.00 0.00 0.00 25 1000.4
20260904040013 75 127 15.6 24.3 0.00 0.00 0.00 25 1000.4
20260904035512 76 159 12.2 24.3 0.00 0.00 0.00 24 1000.3
20260904035010 75 115 17.4 24.3 0.00 0.00 0.00 25 1000.1
20260904034508 74 95 13.9 20.0 0.00 0.00 0.00 25 1000.2
20260904034007 74 150 10.4 18.2 0.00 0.00 0.00 25 1000.3
20260904033506 75 145 12.2 17.4 0.00 0.00 0.00 24 1000.2
20260904033004 75 127 13.0 18.2 0.00 0.00 0.00 24 1000.2
20260904032502 75 137 12.2 18.2 0.00 0.00 0.00 24 1000.3
20260904032001 75 152 13.0 20.9 0.00 0.00 0.00 23 1000.3
20260904031611 75 143 12.2 20.9 0.00 0.00 0.00 23 1000.2
20260904031058 76 141 13.0 22.6 0.00 0.00 0.00 24 1000.1
20260904030557 76 138 13.0 22.6 0.00 0.00 0.00 24 1000.1
20260904030055 76 136 14.8 25.2 0.00 0.00 0.00 23 1000.1
20260904025554 76 126 17.4 25.2 0.00 0.00 0.00 23 1000.1
20260904025053 75 137 14.8 19.1 0.00 0.00 0.00 24 1000.0
20260904024550 75 118 14.8 19.1 0.00 0.00 0.00 24 999.9
20260904024051 75 138 10.4 15.6 0.00 0.00 0.00 25 999.9
20260904023547 75 113 11.3 15.6 0.00 0.00 0.00 25 999.9
20260904023046 74 124 12.2 17.4 0.00 0.00 0.00 25 1000.1
20260904022545 74 155 9.6 13.0 0.00 0.00 0.00 24 1000.0
20260904022044 76 152 9.6 18.2 0.00 0.00 0.00 23 999.9
20260904021549 76 176 13.9 20.9 0.00 0.00 0.00 22 1000.0
20260904021041 76 185 14.8 20.9 0.00 0.00 0.00 22 999.8
20260904020540 76 197 13.9 21.7 0.00 0.00 0.00 22 999.9
20260904020042 76 194 13.9 21.7 0.00 0.00 0.00 22 1000.0
20260904015536 76 176 9.6 16.5 0.00 0.00 0.00 22 999.9
20260904015035 77 157 11.3 20.9 0.00 0.00 0.00 22 1000.0
20260904014533 77 155 12.2 20.9 0.00 0.00 0.00 21 1000.1
20260904014032 77 161 12.2 17.4 0.00 0.00 0.00 21 1000.1
20260904013534 78 161 11.3 20.9 0.00 0.00 0.00 21 1000.0
20260904013029 79 165 13.9 20.9 0.00 0.00 0.00 21 1000.1
20260904012527 79 158 15.6 24.3 0.00 0.00 0.00 21 1000.1
20260904012026 79 142 17.4 24.3 0.00 0.00 0.00 21 1000.1
20260904011525 80 168 13.9 19.1 0.00 0.00 0.00 20 1000.1
20260904011024 80 202 15.6 19.1 0.00 0.00 0.00 21 1000.2
20260904010524 80 190 13.0 26.1 0.00 0.00 0.00 20 1000.1
20260904010022 80 174 16.5 26.1 0.00 0.00 0.00 20 1000.2
20260904005519 80 145 13.0 20.9 0.00 0.00 0.00 20 1000.2
20260904005020 80 191 13.9 21.7 0.00 0.00 0.00 20 1000.3
20260904004515 81 191 15.6 21.7 0.00 0.00 0.00 20 1000.3
20260904004013 81 165 13.9 26.9 0.00 0.00 0.00 20 1000.3
20260904003511 82 194 17.4 26.9 0.00 0.00 0.00 20 1000.4
20260904003011 82 163 13.9 21.7 0.00 0.00 0.00 20 1000.3
20260904002509 82 174 13.0 21.7 0.00 0.00 0.00 20 1000.3
20260904002007 82 177 15.6 26.1 0.00 0.00 0.00 20 1000.3
20260904001505 81 172 13.9 22.6 0.00 0.00 0.00 22 1000.3
20260904001005 81 153 11.3 20.0 0.00 0.00 0.00 22 1000.3
20260904000506 82 144 13.9 19.1 0.00 0.00 0.00 22 1000.3
20260904000002 81 147 11.3 18.2 0.00 0.00 0.00 21 1000.4
20260903235603 81 142 13.9 19.1 0.00 0.00 0.00 22 1000.4
20260903235058 82 157 13.0 19.1 0.00 0.00 0.00 20 1000.5
20260903234557 83 167 13.9 20.0 0.00 0.00 0.00 20 1000.5
20260903234055 83 151 15.6 19.1 0.00 0.00 0.00 20 1000.6
20260903233554 83 140 12.2 21.7 0.00 0.00 0.00 20 1000.5
20260903233053 83 167 13.9 21.7 0.00 0.00 0.00 19 1000.7
20260903232551 83 162 11.3 16.5 0.00 0.00 0.00 21 1000.7
20260903232049 81 147 13.0 22.6 0.00 0.00 0.00 21 1000.7
20260903231554 80 155 13.9 24.3 0.00 0.00 0.00 21 1000.9
20260903231046 80 144 12.2 19.1 0.00 0.00 0.00 21 1000.8
20260903230547 80 184 12.2 19.1 0.00 0.00 0.00 20 1000.9
20260903230048 80 190 13.9 19.1 0.00 0.00 0.00 21 1001.1
20260903225543 80 145 13.9 20.9 0.00 0.00 0.00 21 1001.0
20260903225040 81 160 14.8 22.6 0.00 0.00 0.00 20 1001.3
20260903224544 81 168 12.2 22.6 0.00 0.00 0.00 20 1001.4
20260903224042 82 169 11.3 22.6 0.00 0.00 0.00 21 1001.4
20260903223536 81 190 13.0 17.4 0.00 0.00 0.00 22 1001.4
20260903223036 81 161 13.9 20.0 0.00 0.00 0.00 21 1001.4
20260903222535 81 172 9.6 18.2 0.00 0.00 0.00 21 1001.6
20260903222032 82 153 12.2 20.0 0.00 0.00 0.00 21 1001.7
20260903221544 82 163 13.0 20.0 0.00 0.00 0.00 21 1001.9
20260903221032 81 195 10.4 20.0 0.00 0.00 0.00 20 1001.8
20260903220527 82 192 13.0 20.9 0.00 0.00 0.00 21 1001.8
20260903220026 81 182 8.7 18.2 0.00 0.00 0.00 20 1001.9
20260903215526 81 184 12.2 19.1 0.00 0.00 0.00 19 1001.9
20260903215023 82 181 15.6 19.1 0.00 0.00 0.00 20 1002.0
20260903214522 82 167 11.3 20.9 0.00 0.00 0.00 20 1002.0
20260903214020 81 178 13.0 20.9 0.00 0.00 0.00 19 1002.1
20260903213518 81 138 13.0 19.1 0.00 0.00 0.00 19 1002.1
20260903213021 80 182 10.4 20.0 0.00 0.00 0.00 20 1001.9
20260903212515 80 179 13.0 20.0 0.00 0.00 0.00 20 1002.2
20260903212016 81 149 13.0 18.2 0.00 0.00 0.00 21 1002.1
20260903211512 81 185 9.6 14.8 0.00 0.00 0.00 21 1002.2
20260903211014 81 151 8.7 16.5 0.00 0.00 0.00 21 1002.3
20260903210509 80 152 12.2 22.6 0.00 0.00 0.00 21 1002.4
20260903210009 80 159 15.6 24.3 0.00 0.00 0.00 21 1002.5
20260903205506 80 132 12.2 20.9 0.00 0.00 0.00 21 1002.5
20260903205005 80 164 11.3 17.4 0.00 0.00 0.00 23 1002.6
20260903204506 80 119 9.6 17.4 0.00 0.00 0.00 23 1002.8
20260903204000 80 156 9.6 13.9 0.00 0.00 0.00 22 1002.9
20260903203601 79 163 6.1 16.5 0.00 0.00 0.00 23 1003.0
20260903203059 80 135 7.8 16.5 0.00 0.00 0.00 22 1003.0
20260903202557 79 188 9.6 20.0 0.00 0.00 0.00 21 1003.1
20260903202056 79 129 13.0 20.0 0.00 0.00 0.00 22 1003.2
20260903201554 80 195 8.7 20.9 0.00 0.00 0.00 21 1003.2
20260903201052 79 147 11.3 20.9 0.00 0.00 0.00 21 1003.4
20260903200552 79 128 12.2 19.1 0.00 0.00 0.00 21 1003.5
20260903200051 80 161 11.3 20.0 0.00 0.00 0.00 21 1003.5
20260903195548 79 151 12.2 23.5 0.00 0.00 0.00 20 1003.6
20260903195047 79 136 12.2 20.9 0.00 0.00 0.00 21 1003.6
20260903194546 79 138 13.9 20.9 0.00 0.00 0.00 21 1003.6
20260903194046 79 126 10.4 20.0 0.00 0.00 0.00 20 1003.8
20260903193542 78 154 13.9 20.0 0.00 0.00 0.00 22 1003.8
20260903193041 79 176 12.2 19.1 0.00 0.00 0.00 22 1003.8
20260903192540 79 155 10.4 18.2 0.00 0.00 0.00 20 1004.0
20260903192038 78 153 8.7 18.2 0.00 0.00 0.00 21 1003.9
20260903191539 78 140 7.0 19.1 0.00 0.00 0.00 21 1004.0
20260903191035 79 198 10.4 19.1 0.00 0.00 0.00 20 1004.1
20260903190536 78 151 12.2 20.0 0.00 0.00 0.00 21 1004.3
20260903190032 78 157 10.4 17.4 0.00 0.00 0.00 21 1004.3
20260903185530 78 200 10.4 16.5 0.00 0.00 0.00 20 1004.3
20260903185031 78 146 10.4 16.5 0.00 0.00 0.00 21 1004.4
20260903184527 78 166 13.0 15.6 0.00 0.00 0.00 20 1004.4
20260903184026 78 165 11.3 16.5 0.00 0.00 0.00 21 1004.5
20260903183525 78 150 12.2 17.4 0.00 0.00 0.00 21 1004.6
20260903183023 78 178 9.6 16.5 0.00 0.00 0.00 20 1004.5
20260903182521 77 127 9.6 18.2 0.00 0.00 0.00 22 1004.6
20260903182020 77 159 12.2 18.2 0.00 0.00 0.00 20 1004.8
20260903181518 77 226 12.2 20.0 0.00 0.00 0.00 21 1004.8
20260903181016 77 144 13.0 20.0 0.00 0.00 0.00 21 1004.9
20260903180518 77 140 14.8 20.0 0.00 0.00 0.00 21 1004.9
20260903180030 77 153 9.6 14.8 0.00 0.00 0.00 21 1004.9
20260903175512 78 172 8.7 20.0 0.00 0.00 0.00 21 1005.0
20260903175011 77 147 6.1 13.9 0.00 0.00 0.00 20 1004.9
20260903174509 77 203 9.6 14.8 0.00 0.00 0.00 20 1005.0
20260903174007 76 200 7.8 13.0 0.00 0.00 0.00 20 1005.1
20260903173506 76 221 5.2 14.8 0.00 0.00 0.00 20 1005.1
20260903173004 76 211 8.7 14.8 0.00 0.00 0.00 22 1005.0
20260903172503 76 253 8.7 13.9 0.00 0.00 0.00 21 1005.1
20260903172002 76 207 6.1 12.2 0.00 0.00 0.00 20 1005.2
20260903171600 75 192 5.2 10.4 0.00 0.00 0.00 20 1005.2
20260903171059 75 226 3.5 9.6 0.00 0.00 0.00 21 1005.2
20260903170602 75 227 4.3 9.6 0.00 0.00 0.00 22 1005.2
20260903170058 74 178 3.5 10.4 0.00 0.00 0.00 21 1005.3
20260903165558 74 202 4.3 11.3 0.00 0.00 0.00 22 1005.2
20260903165053 74 152 4.3 11.3 0.00 0.00 0.00 23 1005.2
20260903164601 74 136 5.2 12.2 0.00 0.00 0.00 22 1005.3
20260903164050 73 158 5.2 10.4 0.00 0.00 0.00 22 1005.3
20260903163549 73 122 3.5 8.7 0.00 0.00 0.00 25 1005.3
20260903163048 73 117 5.2 8.7 0.00 0.00 0.00 23 1005.3
20260903162545 73 125 6.1 8.7 0.00 0.00 0.00 27 1005.3
20260903162044 72 161 3.5 8.7 0.00 0.00 0.00 26 1005.4
20260903161543 71 153 4.3 7.8 0.00 0.00 0.00 23 1005.5
20260903161041 71 163 4.3 8.7 0.00 0.00 0.00 25 1005.5
20260903160540 71 124 5.2 8.7 0.00 0.00 0.00 27 1005.6
20260903160039 70 143 4.3 7.8 0.00 0.00 0.00 28 1005.6
20260903155540 69 178 6.1 8.7 0.00 0.00 0.00 27 1005.5
20260903155035 69 147 7.0 8.7 0.00 0.00 0.00 27 1005.6
20260903154535 68 157 5.2 10.4 0.00 0.00 0.00 30 1005.6
20260903154032 67 159 7.8 10.4 0.00 0.00 0.00 31 1005.7
20260903153530 66 135 6.1 9.6 0.00 0.00 0.00 33 1005.7
20260903153030 65 165 4.3 7.8 0.00 0.00 0.00 35 1005.9
20260903152530 65 171 5.2 7.8 0.00 0.00 0.00 34 1006.0
20260903152026 64 172 4.3 7.8 0.00 0.00 0.00 35 1005.9
20260903151528 64 158 5.2 7.8 0.00 0.00 0.00 35 1006.0
20260903151025 63 155 4.3 7.0 0.00 0.00 0.00 34 1006.0
20260903150523 63 176 5.2 7.0 0.00 0.00 0.00 36 1006.0
20260903150022 62 186 4.3 7.0 0.00 0.00 0.00 38 1006.0
20260903145520 60 165 6.1 7.8 0.00 0.00 0.00 39 1006.1
20260903145019 59 147 5.2 6.1 0.00 0.00 0.00 43 1006.1
20260903144517 58 153 4.3 7.8 0.00 0.00 0.00 44 1006.1
20260903144016 57 190 4.3 7.8 0.00 0.00 0.00 45 1006.1
20260903143516 57 143 4.3 6.1 0.00 0.00 0.00 46 1006.0
20260903143014 56 158 4.3 7.0 0.00 0.00 0.00 47 1006.1
20260903142511 55 159 3.5 6.1 0.00 0.00 0.00 52 1006.1
20260903142010 54 170 2.6 4.3 0.00 0.00 0.00 49 1006.1
20260903141508 53 198 2.6 4.3 0.00 0.00 0.00 47 1006.1
20260903141010 51 161 2.6 4.3 0.00 0.00 0.00 50 1006.1
20260903140506 50 161 2.6 4.3 0.00 0.00 0.00 45 1006.1
20260903140004 47 147 2.6 4.3 0.00 0.00 0.00 30 1006.0
20260903135502 45 146 2.6 5.2 0.00 0.00 0.00 19 1006.0
20260903135001 43 192 0.9 4.3 0.00 0.00 0.00 19 1005.9
20260903134559 43 176 1.7 4.3 0.00 0.00 0.00 20 1005.9
20260903134059 43 176 0.9 2.6 0.00 0.00 0.00 17 1005.8
20260903133556 43 1 1.7 2.6 0.00 0.00 0.00 22 1005.8
20260903133055 43 12 0.0 2.6 0.00 0.00 0.00 16 1005.7
20260903132553 43 12 0.0 2.6 0.00 0.00 0.00 15 1005.5
20260903132051 43 21 0.0 6.1 0.00 0.00 0.00 14 1005.5
20260903131550 42 77 0.0 6.1 0.00 0.00 0.00 26 1005.4
20260903131051 43 163 0.9 1.7 0.00 0.00 0.00 28 1005.3
20260903130550 42 163 0.9 2.6 0.00 0.00 0.00 21 1005.1
20260903130109 42 163 0.9 3.5 0.00 0.00 0.00 21 1005.0
20260903125544 42 163 0.9 3.5 0.00 0.00 0.00 23 1005.0
20260903125046 42 163 0.0 1.7 0.00 0.00 0.00 19 1005.0
20260903124541 41 163 0.9 1.7 0.00 0.00 0.00 21 1004.9
20260903124039 41 163 0.0 3.5 0.00 0.00 0.00 24 1004.9
20260903123538 41 163 1.7 4.3 0.00 0.00 0.00 30 1004.9
20260903123037 42 163 2.6 4.3 0.00 0.00 0.00 28 1004.9
20260903122538 42 163 2.6 4.3 0.00 0.00 0.00 28 1004.8
20260903122034 42 189 2.6 4.3 0.00 0.00 0.00 30 1004.8
20260903121540 43 189 0.0 2.6 0.00 0.00 0.00 19 1004.6
20260903121030 42 189 0.0 2.6 0.00 0.00 0.00 21 1004.6
20260903120532 42 189 0.0 2.6 0.00 0.00 0.00 25 1004.5
20260903120030 42 189 0.0 0.9 0.00 0.00 0.00 22 1004.5
20260903115526 42 189 0.0 1.7 0.00 0.00 0.00 18 1004.5
20260903115025 42 189 0.0 2.6 0.00 0.00 0.00 17 1004.4
20260903114524 41 189 0.0 2.6 0.00 0.00 0.00 16 1004.3
20260903114021 41 189 0.0 1.7 0.00 0.00 0.00 15 1004.4
20260903113521 41 189 0.0 3.5 0.00 0.00 0.00 17 1004.3
20260903113027 41 189 0.9 3.5 0.00 0.00 0.00 24 1004.3
20260903112517 42 189 0.9 3.5 0.00 0.00 0.00 27 1004.3
20260903112018 44 99 0.0 0.0 0.00 0.00 0.00 15 1004.2
20260903111514 44 99 0.0 1.7 0.00 0.00 0.00 10 1004.2
20260903111013 44 99 0.0 3.5 0.00 0.00 0.00 7 1004.1
20260903110512 43 99 0.0 1.7 0.00 0.00 0.00 16 1004.0
20260903110017 43 99 0.0 2.6 0.00 0.00 0.00 23 1003.9
20260903105508 43 234 0.9 2.6 0.00 0.00 0.00 26 1003.9
20260903105009 43 234 0.0 2.6 0.00 0.00 0.00 31 1003.8
20260903104506 43 234 0.0 4.3 0.00 0.00 0.00 34 1003.8
20260903104004 44 234 2.6 4.3 0.00 0.00 0.00 32 1003.8
20260903103505 45 120 0.0 2.6 0.00 0.00 0.00 26 1003.7
20260903103001 46 120 0.9 2.6 0.00 0.00 0.00 21 1003.7
20260903102559 45 120 0.0 3.5 0.00 0.00 0.00 18 1003.6
20260903102103 45 120 0.0 3.5 0.00 0.00 0.00 15 1003.6
20260903101605 45 219 0.0 0.0 0.00 0.00 0.00 13 1003.5
20260903101057 44 219 0.0 0.9 0.00 0.00 0.00 12 1003.5
20260903100554 43 219 0.0 3.5 0.00 0.00 0.00 25 1003.4